Home   Weather   Lexington-Fayette   Past weeks
Flag for USA

Past Weather in Lexington-Fayette, Kentucky, USA — Yesterday and Last 2 Weeks

Now
74 °F

Light rain. Mostly cloudy.


Feels Like: 72 °F
Forecast: 76 / 68 °F
Wind: 6 mph from Southwest

Location: Blue Grass Airport

Current Time: Jul 22, 2019 at 10:18:13 am

Latest Report: Jul 22, 2019 at 8:54 am


Visibility: 8 mi

Pressure: 29.91 "Hg

Humidity: 91%

Dew Point: 71 °F

Location of Lexington-FayetteLocation

Past Weather in Lexington-Fayette — Graph

°F

Lexington-Fayette Temperature Yesterday

Maximum temperature yesterday: 86 °F (at 12:54 pm)
Minimum temperature yesterday: 73 °F (at 5:54 am)
Average temperature yesterday: 77 °F

High & Low Weather Summary for the Past Weeks

 TemperatureHumidityPressure
High93 °F (Jul 19, 4:54 pm)91% (Jul 18, 8:54 am)30.19 "Hg (Jul 18, 8:54 am)
Low64 °F (Jul 13, 5:54 am)33% (Jul 13, 6:54 pm)29.81 "Hg (Jul 11, 4:54 pm)
Average80 °F72%29.98 "Hg
* Reported Jul 7 8:54 am — Jul 22 8:54 am, Lexington-Fayette. Weather by CustomWeather, © 2019

Note: Actual official high and low records may vary slightly from our data, if they occured in-between our weather recording intervals... More about our weather records

Advertising

Lexington-Fayette Weather History for the Previous 24 Hours

Scroll right to see more
 ConditionsComfort  
Time TempWeatherWind HumidityBarometerVisibility
8:54 am
Mon, Jul 22
74 °FLight rain. Mostly cloudy.6 mph91%29.91 "Hg8 mi
8:02 am73 °FLight rain. Fog.3 mph90%29.94 "Hg3 mi
7:41 am73 °FPartly sunny.6 mph90%29.95 "Hg7 mi
6:54 am73 °FBroken clouds.No wind90%29.90 "Hg9 mi
6:23 am73 °FPartly cloudy.3 mph90%29.92 "Hg7 mi
5:54 am73 °FPassing clouds.No wind90%29.90 "Hg8 mi
5:04 am73 °FMostly cloudy.5 mph90%29.93 "Hg9 mi
4:54 am74 °FPassing clouds.5 mph88%29.90 "Hg9 mi
3:54 am74 °FClear.5 mph91%29.89 "Hg8 mi
2:54 am75 °FPassing clouds.No wind88%29.89 "Hg10 mi
2:15 am76 °FHeavy rain. Fog.8 mph88%29.94 "Hg4 mi
2:08 am76 °FRain. Fog.6 mph88%29.95 "Hg4 mi
1:23 am77 °FPartly cloudy.7 mph85%29.95 "Hg10 mi
12:54 am76 °FPassing clouds.7 mph88%29.91 "Hg10 mi
11:54 pm
Sun, Jul 21
76 °FClear.7 mph88%29.92 "Hg10 mi
10:54 pm76 °FClear.9 mph85%29.93 "Hg10 mi
9:54 pm75 °FClear.5 mph90%29.93 "Hg10 mi
8:54 pm77 °FSunny.No wind85%29.92 "Hg10 mi
7:54 pm79 °FSunny.12 mph79%29.92 "Hg10 mi
6:54 pm77 °FSunny.8 mph82%29.92 "Hg10 mi
5:54 pm76 °FPassing clouds.12 mph85%29.94 "Hg10 mi
4:54 pm74 °FLight rain. Scattered clouds.No wind88%29.94 "Hg10 mi
4:29 pm74 °FRain. Partly sunny.6 mph88%29.98 "Hg7 mi
3:54 pm74 °FThundershowers. Fog.6 mph88%29.98 "Hg6 mi
3:29 pm74 °FThunderstorms. Fog.12 mph91%30.00 "Hg4 mi
2:54 pm76 °FStrong thunderstorms. Fog.14 mph88%29.98 "Hg1 mi
2:32 pm79 °FThundershowers. Mostly cloudy.12 mph82%30.00 "Hg10 mi
1:54 pm84 °FThundershowers. Partly sunny.7 mph67%29.96 "Hg10 mi
12:54 pm86 °FPartly sunny.5 mph61%29.99 "Hg10 mi
11:54 am84 °FScattered clouds.6 mph65%29.99 "Hg10 mi
10:54 am84 °FScattered clouds.5 mph67%29.98 "Hg10 mi
Weather by CustomWeather, © 2019

See weather overview